This demonstration page uses our WeatherBlox Daily Observations layout. Learn more.

Left ArrowRight Arrow

39.08367, -84.50855

Hourly Observations for April 24, 2015

Temp ( °F °C ) Dew Point ( °F °C ) Humidity (%) Winds ( mph kmh ) Pressure ( in mb ) Visibility ( mi km ) Precip ( " mm )
12:53 am 00:53 Clear 38 3.3 32 undefined 79 79 N N/A 30.12 1020 10 16 N/A
1:53 am 01:53 Clear 35 1.7 32 undefined 89 89 N N/A 30.13 1020 10 16 N/A
2:53 am 02:53 Clear 33 0.6 32 undefined 96 96 N N/A 30.12 1020 10 16 N/A
3:53 am 03:53 Clear 32 undefined 31 -0.6 96 96 N N/A 30.13 1020 10 16 N/A
4:53 am 04:53 Clear 32 undefined 32 undefined 100 100 N N/A 30.13 1020 10 16 N/A
5:53 am 05:53 Clear 30 -1.1 30 -1.1 100 100 N N/A 30.14 1021 9 14 N/A
6:53 am 06:53 Sunny 32 undefined 31 -0.6 96 96 N N/A 30.17 1022 10 16 N/A
7:53 am 07:53 Sunny 33 0.6 32 undefined 96 96 N N/A 30.18 1022 10 16 N/A
8:53 am 08:53 Sunny 39 3.9 35 1.7 86 86 N N/A 30.17 1022 10 16 N/A
9:53 am 09:53 Sunny 47 8.3 30 -1.1 52 52 S 7 11 30.17 1022 10 16 N/A
10:53 am 10:53 Sunny 50 10 29 -1.7 44 44 VRB 3 6 30.15 1021 10 16 N/A
11:53 am 11:53 Sunny 53 11.7 28 -2.2 38 38 SSW 5 7 30.15 1021 10 16 N/A
12:53 pm 12:53 Sunny 56 13.3 27 -2.8 33 33 SSE 5 7 30.13 1020 10 16 N/A
1:53 pm 13:53 Sunny 56 13.3 26 -3.3 32 32 S 5 7 30.11 1020 10 16 N/A
2:53 pm 14:53 Sunny 58 14.4 27 -2.8 31 31 S 7 11 30.08 1019 10 16 N/A
3:53 pm 15:53 Sunny 59 15 24 -4.4 26 26 N N/A 30.04 1017 10 16 N/A
4:53 pm 16:53 Sunny 60 15.6 30 -1.1 32 32 SW 3 6 30.00 1016 10 16 N/A
5:53 pm 17:53 Sunny 60 15.6 29 -1.7 31 31 SSE 5 7 29.99 1016 10 16 N/A
6:53 pm 18:53 Mostly Cloudy 58 14.4 32 undefined 38 38 SE 3 6 29.98 1015 10 16 N/A
7:53 pm 19:53 Cloudy 58 14.4 31 -0.6 36 36 N N/A 29.97 1015 10 16 N/A
8:53 pm 20:53 Cloudy 56 13.3 35 1.7 46 46 SE 3 6 29.96 1015 10 16 N/A
9:53 pm 21:53 Cloudy 55 12.8 34 1.1 45 45 SSE 5 7 29.95 1014 10 16 N/A
10:53 pm 22:53 Cloudy 56 13.3 34 1.1 44 44 N N/A 29.93 1014 10 16 N/A
11:53 pm 23:53 Cloudy 52 11.1 41 5 66 66 N N/A 29.92 1013 10 16 N/A

Powered by AerisWeather